Time,TemperatureF,DewpointF,PressureIn,WindDirection,WindDirectionDegrees,WindSpeedMPH,WindSpeedGustMPH,Humidity,HourlyPrecipIn,Conditions,Clouds,dailyrainin,SoftwareType,DateUTC
2013-06-27 00:03:00,85.1,55.2,29.03,South,169,2.6,4.0,36,0.00,,,0.00,WSDL version 420,2013-06-27 05:03:00,
2013-06-27 00:09:00,84.8,54.9,29.03,SSE,158,1.3,4.0,36,0.00,,,0.00,WSDL version 420,2013-06-27 05:09:00,
2013-06-27 00:15:00,84.7,54.8,29.03,South,169,1.0,2.9,36,0.00,,,0.00,WSDL version 420,2013-06-27 05:15:00,
2013-06-27 00:17:00,84.5,54.6,29.03,SSE,167,0.0,2.9,36,0.00,,,0.00,WSDL version 420,2013-06-27 05:17:00,
2013-06-27 00:22:00,84.3,54.9,29.03,SE,135,0.0,2.7,36,0.00,,,0.00,WSDL version 420,2013-06-27 05:22:00,
2013-06-27 00:27:00,84.2,55.1,29.03,SSE,166,1.3,3.6,37,0.00,,,0.00,WSDL version 420,2013-06-27 05:27:00,
2013-06-27 00:32:00,84.0,55.0,29.03,SSE,161,0.0,3.6,37,0.00,,,0.00,WSDL version 420,2013-06-27 05:32:00,
2013-06-27 00:37:00,83.7,54.7,29.03,South,186,0.6,1.1,37,0.00,,,0.00,WSDL version 420,2013-06-27 05:37:00,
2013-06-27 00:42:00,83.3,55.1,29.03,SSE,163,0.3,2.7,38,0.00,,,0.00,WSDL version 420,2013-06-27 05:42:00,
2013-06-27 00:47:00,83.3,55.4,29.03,SSW,203,1.3,2.9,39,0.00,,,0.00,WSDL version 420,2013-06-27 05:47:00,
2013-06-27 00:52:00,83.1,56.0,29.03,SSW,194,1.7,2.9,40,0.00,,,0.00,WSDL version 420,2013-06-27 05:52:00,
2013-06-27 00:57:00,83.0,56.2,29.03,WSW,257,0.7,2.9,40,0.00,,,0.00,WSDL version 420,2013-06-27 05:57:00,
2013-06-27 01:05:00,82.9,56.8,29.03,SSW,194,0.4,2.7,41,0.00,,,0.00,WSDL version 420,2013-06-27 06:05:00,
2013-06-27 01:10:00,82.9,56.8,29.03,South,171,1.2,2.5,41,0.00,,,0.00,WSDL version 420,2013-06-27 06:10:00,
2013-06-27 01:16:00,82.9,56.8,29.03,SSW,208,1.1,2.9,41,0.00,,,0.00,WSDL version 420,2013-06-27 06:16:00,
2013-06-27 01:22:00,83.1,57.7,29.06,South,189,1.8,3.6,42,-99.99,,,-99.99,WSDL version 420,2013-06-27 06:22:00,
2013-06-27 01:27:00,83.2,57.1,29.06,SW,225,2.5,3.6,41,0.00,,,0.00,WSDL version 420,2013-06-27 06:27:00,
2013-06-27 01:32:00,83.1,57.0,29.06,SSW,197,1.5,2.7,41,0.00,,,0.00,WSDL version 420,2013-06-27 06:32:00,
2013-06-27 01:37:00,83.2,57.1,29.06,South,191,2.2,4.3,41,0.00,,,0.00,WSDL version 420,2013-06-27 06:37:00,
2013-06-27 01:42:00,83.3,57.2,29.06,South,169,1.3,5.4,41,0.00,,,0.00,WSDL version 420,2013-06-27 06:42:00,
2013-06-27 01:47:00,83.3,57.2,29.06,South,180,1.0,5.4,41,0.00,,,0.00,WSDL version 420,2013-06-27 06:47:00,
2013-06-27 01:53:00,83.2,57.5,29.03,South,173,0.7,2.9,42,0.00,,,0.00,WSDL version 420,2013-06-27 06:53:00,
2013-06-27 01:58:00,82.9,57.5,29.03,SE,146,0.0,2.7,42,0.00,,,0.00,WSDL version 420,2013-06-27 06:58:00,
2013-06-27 02:03:00,82.4,57.4,29.03,SSE,158,0.0,0.0,43,0.00,,,0.00,WSDL version 420,2013-06-27 07:03:00,
2013-06-27 02:08:00,82.1,57.6,29.03,South,173,0.0,0.0,44,0.00,,,0.00,WSDL version 420,2013-06-27 07:08:00,
2013-06-27 02:13:00,81.6,57.0,29.03,South,189,0.0,1.1,43,0.00,,,0.00,WSDL version 420,2013-06-27 07:13:00,
2013-06-27 02:18:00,81.3,56.9,29.03,SSE,158,0.0,1.1,43,0.00,,,0.00,WSDL version 420,2013-06-27 07:18:00,
2013-06-27 02:23:00,81.1,57.1,29.03,SSE,153,0.0,3.4,44,0.00,,,0.00,WSDL version 420,2013-06-27 07:23:00,
2013-06-27 02:28:00,80.8,57.0,29.03,South,174,1.6,3.4,45,-99.99,,,-99.99,WSDL version 420,2013-06-27 07:28:00,
2013-06-27 02:39:00,80.2,57.6,29.03,SSE,158,1.6,4.0,46,0.00,,,0.00,WSDL version 420,2013-06-27 07:39:00,
2013-06-27 02:44:00,80.2,57.7,29.03,SSE,165,1.7,4.0,47,0.00,,,0.00,WSDL version 420,2013-06-27 07:44:00,
2013-06-27 02:49:00,80.2,58.2,29.03,South,173,1.8,5.6,47,0.00,,,0.00,WSDL version 420,2013-06-27 07:49:00,
2013-06-27 02:54:00,80.2,58.2,29.03,South,173,1.8,5.6,47,0.00,,,0.00,WSDL version 420,2013-06-27 07:54:00,
2013-06-27 02:59:00,80.2,58.2,29.03,SSE,163,0.4,2.0,47,0.00,,,0.00,WSDL version 420,2013-06-27 07:59:00,
2013-06-27 03:04:00,80.2,58.6,29.03,SSW,193,2.9,3.8,48,0.00,,,0.00,WSDL version 420,2013-06-27 08:04:00,
2013-06-27 03:09:00,80.2,58.8,29.03,South,173,0.9,3.8,48,0.00,,,0.00,WSDL version 420,2013-06-27 08:09:00,
2013-06-27 03:14:00,80.1,58.4,29.03,SSE,149,1.0,2.9,48,-99.99,,,-99.99,WSDL version 420,2013-06-27 08:14:00,
2013-06-27 03:21:00,79.9,58.7,29.03,SSE,161,1.2,3.1,49,0.00,,,0.00,WSDL version 420,2013-06-27 08:21:00,
2013-06-27 03:26:00,79.8,59.1,29.03,South,183,3.1,3.6,49,0.00,,,0.00,WSDL version 420,2013-06-27 08:26:00,
2013-06-27 03:31:00,79.9,59.2,29.03,South,172,1.7,4.0,49,0.00,,,0.00,WSDL version 420,2013-06-27 08:31:00,
2013-06-27 03:36:00,79.8,58.9,29.00,SSE,158,1.2,4.3,49,0.00,,,0.00,WSDL version 420,2013-06-27 08:36:00,
2013-06-27 03:41:00,79.7,59.4,29.00,South,169,2.5,4.3,50,0.00,,,0.00,WSDL version 420,2013-06-27 08:41:00,
2013-06-27 03:46:00,79.5,59.3,29.00,SSE,161,2.5,3.8,50,0.00,,,0.00,WSDL version 420,2013-06-27 08:46:00,
2013-06-27 03:51:00,79.4,59.5,29.03,South,177,2.2,3.6,51,-99.99,,,-99.99,WSDL version 420,2013-06-27 08:51:00,
2013-06-27 03:56:00,79.1,59.5,29.03,SSE,165,0.7,3.1,51,0.00,,,0.00,WSDL version 420,2013-06-27 08:56:00,
2013-06-27 04:01:00,78.9,59.8,29.03,South,174,1.8,3.6,53,0.00,,,0.00,WSDL version 420,2013-06-27 09:01:00,
2013-06-27 04:06:00,78.8,60.1,29.03,South,169,0.3,3.6,53,0.00,,,0.00,WSDL version 420,2013-06-27 09:06:00,
2013-06-27 04:11:00,78.7,60.6,29.03,SSE,164,1.4,4.0,54,0.00,,,0.00,WSDL version 420,2013-06-27 09:11:00,
2013-06-27 04:16:00,78.5,60.3,29.03,SSE,158,1.2,4.0,54,0.00,,,0.00,WSDL version 420,2013-06-27 09:16:00,
2013-06-27 04:22:00,78.4,61.0,29.03,SSE,158,0.0,3.4,55,0.00,,,0.00,WSDL version 420,2013-06-27 09:22:00,
2013-06-27 04:27:00,78.2,60.5,29.03,SSE,149,0.8,2.9,55,0.00,,,0.00,WSDL version 420,2013-06-27 09:27:00,
2013-06-27 04:32:00,78.0,60.7,29.03,SSE,152,0.0,2.0,56,0.00,,,0.00,WSDL version 420,2013-06-27 09:32:00,
2013-06-27 04:37:00,77.8,60.8,29.06,SSE,155,1.5,4.3,56,0.00,,,0.00,WSDL version 420,2013-06-27 09:37:00,
2013-06-27 04:42:00,77.5,60.6,29.06,SSE,152,0.0,4.3,56,-99.99,,,-99.99,WSDL version 420,2013-06-27 09:42:00,
2013-06-27 04:47:00,77.4,60.8,29.06,South,173,0.4,3.8,57,0.00,,,0.00,WSDL version 420,2013-06-27 09:47:00,
2013-06-27 04:52:00,77.2,61.3,29.06,SSE,154,1.9,4.0,58,0.00,,,0.00,WSDL version 420,2013-06-27 09:52:00,
2013-06-27 04:57:00,77.2,61.4,29.06,SE,138,1.4,5.4,58,0.00,,,0.00,WSDL version 420,2013-06-27 09:57:00,
2013-06-27 05:02:00,77.0,61.3,29.06,South,176,1.2,5.4,59,0.00,,,0.00,WSDL version 420,2013-06-27 10:02:00,
2013-06-27 05:07:00,76.9,61.6,29.09,South,171,1.4,3.8,60,0.00,,,0.00,WSDL version 420,2013-06-27 10:07:00,
2013-06-27 05:12:00,76.8,62.1,29.09,SSE,153,2.0,6.5,61,0.00,,,0.00,WSDL version 420,2013-06-27 10:12:00,
2013-06-27 05:17:00,77.0,62.5,29.09,SSE,161,3.0,6.5,61,0.00,,,0.00,WSDL version 420,2013-06-27 10:17:00,
2013-06-27 05:22:00,77.0,62.5,29.09,SSE,167,2.6,6.5,61,0.00,,,0.00,WSDL version 420,2013-06-27 10:22:00,
2013-06-27 05:27:00,77.0,62.8,29.09,South,170,4.2,6.7,62,0.00,,,0.00,WSDL version 420,2013-06-27 10:27:00,
2013-06-27 05:32:00,77.0,63.0,29.09,SSE,161,2.4,6.7,62,0.00,,,0.00,WSDL version 420,2013-06-27 10:32:00,
2013-06-27 05:37:00,77.0,63.0,29.09,SSE,149,3.6,5.4,62,0.00,,,0.00,WSDL version 420,2013-06-27 10:37:00,
2013-06-27 05:42:00,77.0,63.0,29.09,South,171,2.3,7.4,62,0.00,,,0.00,WSDL version 420,2013-06-27 10:42:00,
2013-06-27 05:47:00,77.0,63.2,29.09,South,190,2.9,7.4,63,0.00,,,0.00,WSDL version 420,2013-06-27 10:47:00,
2013-06-27 05:52:00,77.0,63.3,29.09,South,188,2.9,6.0,63,0.00,,,0.00,WSDL version 420,2013-06-27 10:52:00,
2013-06-27 05:57:00,77.0,63.5,29.09,SSW,193,2.9,6.0,63,0.00,,,0.00,WSDL version 420,2013-06-27 10:57:00,
2013-06-27 06:02:00,77.0,63.5,29.09,South,185,1.6,5.4,63,0.00,,,0.00,WSDL version 420,2013-06-27 11:02:00,
2013-06-27 06:07:00,76.8,63.4,29.06,South,176,2.2,4.7,63,0.00,,,0.00,WSDL version 420,2013-06-27 11:07:00,
2013-06-27 06:12:00,76.7,63.8,29.06,SSE,154,1.5,5.4,64,0.00,,,0.00,WSDL version 420,2013-06-27 11:12:00,
2013-06-27 06:17:00,76.6,63.7,29.06,South,174,0.8,5.4,65,0.00,,,0.00,WSDL version 420,2013-06-27 11:17:00,
2013-06-27 06:24:00,76.6,64.3,29.09,SE,141,2.9,4.9,66,0.00,,,0.00,WSDL version 420,2013-06-27 11:24:00,
2013-06-27 06:29:00,76.6,64.4,29.09,SSE,161,1.9,5.6,66,0.00,,,0.00,WSDL version 420,2013-06-27 11:29:00,
2013-06-27 06:34:00,76.6,64.4,29.12,SE,143,0.3,5.6,66,0.00,,,0.00,WSDL version 420,2013-06-27 11:34:00,
2013-06-27 06:39:00,76.6,64.9,29.12,SSE,167,1.3,5.6,67,0.00,,,0.00,WSDL version 420,2013-06-27 11:39:00,
2013-06-27 06:44:00,76.6,64.9,29.12,SSE,154,0.3,5.6,67,0.00,,,0.00,WSDL version 420,2013-06-27 11:44:00,
2013-06-27 06:49:00,76.7,65.0,29.12,SE,141,0.8,5.4,67,0.00,,,0.00,WSDL version 420,2013-06-27 11:49:00,
2013-06-27 06:55:00,76.9,64.9,29.12,SSE,158,0.4,5.4,66,0.00,,,0.00,WSDL version 420,2013-06-27 11:55:00,
2013-06-27 07:00:00,77.1,64.9,29.12,South,170,0.6,3.8,66,0.00,,,0.00,WSDL version 420,2013-06-27 12:00:00,
2013-06-27 07:05:00,77.4,65.1,29.12,South,184,1.3,3.8,66,0.00,,,0.00,WSDL version 420,2013-06-27 12:05:00,
2013-06-27 07:10:00,77.8,65.5,29.12,SSE,148,0.0,5.4,66,0.00,,,0.00,WSDL version 420,2013-06-27 12:10:00,
2013-06-27 07:16:00,78.2,65.5,29.12,South,169,1.5,5.4,65,0.00,,,0.00,WSDL version 420,2013-06-27 12:16:00,
2013-06-27 07:21:00,78.5,65.7,29.12,SSE,161,3.2,6.0,64,0.00,,,0.00,WSDL version 420,2013-06-27 12:21:00,
2013-06-27 07:26:00,79.1,65.4,29.12,SSE,150,4.3,7.2,63,0.00,,,0.00,WSDL version 420,2013-06-27 12:26:00,
2013-06-27 07:31:00,79.4,65.7,29.12,SSE,161,2.6,7.2,63,0.00,,,0.00,WSDL version 420,2013-06-27 12:31:00,
2013-06-27 07:36:00,80.0,66.0,29.12,SSE,164,2.3,5.8,62,0.00,,,0.00,WSDL version 420,2013-06-27 12:36:00,
2013-06-27 07:41:00,80.3,66.1,29.12,SSE,158,2.4,6.5,62,-99.99,,,-99.99,WSDL version 420,2013-06-27 12:41:00,
2013-06-27 07:46:00,81.0,65.9,29.12,SSE,158,2.1,6.5,60,0.00,,,0.00,WSDL version 420,2013-06-27 12:46:00,
2013-06-27 07:51:00,81.6,66.3,29.12,SSE,158,3.8,5.6,59,0.00,,,0.00,WSDL version 420,2013-06-27 12:51:00,
2013-06-27 07:56:00,82.0,66.3,29.12,SSE,167,3.2,7.2,59,0.00,,,0.00,WSDL version 420,2013-06-27 12:56:00,
2013-06-27 08:01:00,82.5,66.2,29.12,SE,128,0.7,7.2,57,0.00,,,0.00,WSDL version 420,2013-06-27 13:01:00,
2013-06-27 08:06:00,83.3,66.5,29.15,SSE,167,1.8,4.9,57,0.00,,,0.00,WSDL version 420,2013-06-27 13:06:00,
2013-06-27 08:11:00,83.9,66.4,29.15,SE,139,2.2,6.5,55,0.00,,,0.00,WSDL version 420,2013-06-27 13:11:00,
2013-06-27 08:16:00,84.6,66.1,29.15,SW,225,3.6,6.5,53,0.00,,,0.00,WSDL version 420,2013-06-27 13:16:00,
2013-06-27 08:21:00,85.2,66.0,29.15,SE,135,1.7,4.7,52,0.00,,,0.00,WSDL version 420,2013-06-27 13:21:00,
2013-06-27 08:26:00,86.0,65.8,29.15,SSE,158,0.6,4.7,50,0.00,,,0.00,WSDL version 420,2013-06-27 13:26:00,
2013-06-27 08:31:00,86.1,64.3,29.15,SSW,195,3.0,6.9,49,0.00,,,0.00,WSDL version 420,2013-06-27 13:31:00,
2013-06-27 08:37:00,86.5,63.9,29.15,SW,229,2.3,6.9,46,0.00,,,0.00,WSDL version 420,2013-06-27 13:37:00,
2013-06-27 08:42:00,86.7,63.5,29.15,SW,225,4.0,8.1,46,0.00,,,0.00,WSDL version 420,2013-06-27 13:42:00,
2013-06-27 08:47:00,86.9,63.0,29.15,SW,225,3.9,8.1,45,0.00,,,0.00,WSDL version 420,2013-06-27 13:47:00,
2013-06-27 08:57:00,87.6,62.4,29.15,SSW,212,3.6,7.8,43,0.00,,,0.00,WSDL version 420,2013-06-27 13:57:00,
2013-06-27 09:03:00,88.0,62.0,29.15,South,176,3.2,7.2,42,0.00,,,0.00,WSDL version 420,2013-06-27 14:03:00,
2013-06-27 09:09:00,88.2,61.8,29.15,South,176,4.3,7.6,42,0.00,,,0.00,WSDL version 420,2013-06-27 14:09:00,
2013-06-27 09:14:00,88.6,61.7,29.15,SW,221,4.0,7.6,41,0.00,,,0.00,WSDL version 420,2013-06-27 14:14:00,
2013-06-27 09:19:00,89.5,61.7,29.15,SSW,200,3.9,8.1,38,0.00,,,0.00,WSDL version 420,2013-06-27 14:19:00,
2013-06-27 09:24:00,90.1,61.1,29.15,SW,225,4.2,6.5,38,0.00,,,0.00,WSDL version 420,2013-06-27 14:24:00,
2013-06-27 09:29:00,90.1,60.7,29.15,SSW,208,5.6,10.1,37,0.00,,,0.00,WSDL version 420,2013-06-27 14:29:00,
2013-06-27 09:34:00,90.1,60.9,29.12,SW,219,4.2,10.1,37,0.00,,,0.00,WSDL version 420,2013-06-27 14:34:00,
2013-06-27 09:39:00,90.6,60.6,29.12,SW,225,3.9,8.5,37,0.00,,,0.00,WSDL version 420,2013-06-27 14:39:00,
2013-06-27 09:44:00,90.9,60.8,29.12,SW,235,4.2,8.5,37,0.00,,,0.00,WSDL version 420,2013-06-27 14:44:00,
2013-06-27 09:49:00,91.3,60.6,29.15,SW,221,4.5,8.7,36,0.00,,,0.00,WSDL version 420,2013-06-27 14:49:00,
2013-06-27 09:55:00,91.8,60.3,29.15,South,188,3.8,8.7,35,0.00,,,0.00,WSDL version 420,2013-06-27 14:55:00,
2013-06-27 10:00:00,92.2,60.3,29.15,SSW,194,3.9,8.1,35,0.00,,,0.00,WSDL version 420,2013-06-27 15:00:00,
2013-06-27 10:05:00,92.2,59.8,29.15,SW,214,4.1,8.7,34,0.00,,,0.00,WSDL version 420,2013-06-27 15:05:00,
2013-06-27 10:10:00,92.8,60.4,29.15,SW,225,4.5,8.5,34,0.00,,,0.00,WSDL version 420,2013-06-27 15:10:00,
2013-06-27 10:15:00,93.3,59.9,29.15,South,169,4.2,11.0,33,0.00,,,0.00,WSDL version 420,2013-06-27 15:15:00,
2013-06-27 10:20:00,93.7,59.7,29.15,SSW,194,4.8,11.0,32,0.00,,,0.00,WSDL version 420,2013-06-27 15:20:00,
2013-06-27 10:25:00,94.3,60.0,29.15,South,185,4.7,8.5,31,0.00,,,0.00,WSDL version 420,2013-06-27 15:25:00,
2013-06-27 10:31:00,94.5,59.8,29.15,South,180,3.2,8.5,32,-99.99,,,-99.99,WSDL version 420,2013-06-27 15:31:00,
2013-06-27 10:36:00,95.0,58.7,29.12,SW,229,7.0,10.3,30,-99.99,,,-99.99,WSDL version 420,2013-06-27 15:36:00,
2013-06-27 10:41:00,95.0,59.1,29.12,SSW,200,5.8,10.3,30,0.00,,,0.00,WSDL version 420,2013-06-27 15:41:00,
2013-06-27 10:46:00,95.4,58.5,29.12,South,190,4.4,8.7,29,0.00,,,0.00,WSDL version 420,2013-06-27 15:46:00,
2013-06-27 10:51:00,95.2,58.3,29.12,South,190,5.6,8.5,30,0.00,,,0.00,WSDL version 420,2013-06-27 15:51:00,
2013-06-27 10:57:00,95.7,58.4,29.12,SW,221,6.0,8.5,29,0.00,,,0.00,WSDL version 420,2013-06-27 15:57:00,
2013-06-27 11:02:00,96.1,58.7,29.12,SW,228,4.7,7.8,29,0.00,,,0.00,WSDL version 420,2013-06-27 16:02:00,
2013-06-27 11:07:00,97.0,58.7,29.12,SSW,196,4.3,7.8,28,0.00,,,0.00,WSDL version 420,2013-06-27 16:07:00,
2013-06-27 11:12:00,97.3,58.8,29.12,SSW,209,3.8,8.1,28,0.00,,,0.00,WSDL version 420,2013-06-27 16:12:00,
2013-06-27 11:17:00,97.6,58.3,29.12,SSW,199,6.0,10.1,27,0.00,,,0.00,WSDL version 420,2013-06-27 16:17:00,
2013-06-27 11:24:00,97.3,57.5,29.12,WSW,253,4.8,10.5,26,0.00,,,0.00,WSDL version 420,2013-06-27 16:24:00,
2013-06-27 11:29:00,98.2,57.4,29.12,SSW,212,6.0,10.5,26,0.00,,,0.00,WSDL version 420,2013-06-27 16:29:00,
2013-06-27 11:34:00,98.3,57.6,29.12,SSW,199,3.6,9.6,26,0.00,,,0.00,WSDL version 420,2013-06-27 16:34:00,
2013-06-27 11:39:00,98.9,57.6,29.12,SSE,161,2.3,8.1,25,0.00,,,0.00,WSDL version 420,2013-06-27 16:39:00,
2013-06-27 11:44:00,99.6,57.8,29.12,South,169,4.8,8.1,25,0.00,,,0.00,WSDL version 420,2013-06-27 16:44:00,
2013-06-27 11:49:00,100.1,58.2,29.09,SW,214,3.1,8.1,25,0.00,,,0.00,WSDL version 420,2013-06-27 16:49:00,
2013-06-27 11:55:00,100.9,57.5,29.09,SSE,160,3.5,8.1,24,0.00,,,0.00,WSDL version 420,2013-06-27 16:55:00,
2013-06-27 12:00:00,100.7,55.4,29.09,South,177,4.5,9.8,22,0.00,,,0.00,WSDL version 420,2013-06-27 17:00:00,
2013-06-27 12:05:00,100.6,55.2,29.09,South,183,5.3,9.8,22,0.00,,,0.00,WSDL version 420,2013-06-27 17:05:00,
2013-06-27 12:10:00,100.3,54.6,29.09,SW,215,7.5,10.3,22,0.00,,,0.00,WSDL version 420,2013-06-27 17:10:00,
2013-06-27 12:15:00,100.8,55.0,29.09,SSW,194,5.0,10.7,22,0.00,,,0.00,WSDL version 420,2013-06-27 17:15:00,
2013-06-27 12:20:00,100.9,53.8,29.09,SSE,164,4.4,10.7,21,-99.99,,,-99.99,WSDL version 420,2013-06-27 17:20:00,
2013-06-27 12:25:00,101.3,54.2,29.09,SSE,158,3.4,8.1,21,-99.99,,,-99.99,WSDL version 420,2013-06-27 17:25:00,
2013-06-27 12:30:00,101.8,53.2,29.09,SSE,165,3.2,7.6,20,0.00,,,0.00,WSDL version 420,2013-06-27 17:30:00,
2013-06-27 12:35:00,102.0,52.5,29.09,South,188,4.3,7.6,19,0.00,,,0.00,WSDL version 420,2013-06-27 17:35:00,
2013-06-27 12:40:00,102.1,52.1,29.09,South,174,4.7,10.7,19,0.00,,,0.00,WSDL version 420,2013-06-27 17:40:00,
2013-06-27 12:45:00,102.4,51.6,29.09,South,177,5.2,10.7,19,0.00,,,0.00,WSDL version 420,2013-06-27 17:45:00,
2013-06-27 12:50:00,103.3,52.2,29.09,South,190,2.4,6.5,18,-99.99,,,-99.99,WSDL version 420,2013-06-27 17:50:00,
2013-06-27 12:55:00,103.5,51.3,29.09,SSE,165,5.6,7.4,17,0.00,,,0.00,WSDL version 420,2013-06-27 17:55:00,
2013-06-27 13:01:00,104.1,52.2,29.09,SSW,212,5.3,10.5,18,0.00,,,0.00,WSDL version 420,2013-06-27 18:01:00,
2013-06-27 13:06:00,103.6,50.6,29.09,SSW,209,3.6,10.5,17,0.00,,,0.00,WSDL version 420,2013-06-27 18:06:00,
2013-06-27 13:12:00,103.9,50.5,29.09,SE,129,4.1,7.6,17,0.00,,,0.00,WSDL version 420,2013-06-27 18:12:00,
2013-06-27 13:17:00,104.9,51.3,29.09,SSE,158,1.1,6.0,17,0.00,,,0.00,WSDL version 420,2013-06-27 18:17:00,
2013-06-27 13:22:00,104.9,50.1,29.12,SSW,195,4.0,6.7,16,0.00,,,0.00,WSDL version 420,2013-06-27 18:22:00,
2013-06-27 13:28:00,105.7,50.3,29.12,ENE,74,2.0,7.4,16,0.00,,,0.00,WSDL version 420,2013-06-27 18:28:00,
2013-06-27 13:33:00,105.7,50.3,29.09,SW,221,4.2,7.8,16,0.00,,,0.00,WSDL version 420,2013-06-27 18:33:00,
2013-06-27 13:38:00,104.9,49.7,29.09,SSW,209,5.1,8.1,16,0.00,,,0.00,WSDL version 420,2013-06-27 18:38:00,
2013-06-27 13:43:00,104.2,49.1,29.09,SW,222,4.1,8.1,16,0.00,,,0.00,WSDL version 420,2013-06-27 18:43:00,
2013-06-27 13:48:00,105.0,49.8,29.09,NNE,23,3.3,8.5,16,0.00,,,0.00,WSDL version 420,2013-06-27 18:48:00,
2013-06-27 13:55:00,106.8,49.4,29.09,WSW,239,2.8,6.3,15,0.00,,,0.00,WSDL version 420,2013-06-27 18:55:00,
2013-06-27 14:00:00,106.0,48.9,29.09,SSW,199,3.5,7.4,15,0.00,,,0.00,WSDL version 420,2013-06-27 19:00:00,
2013-06-27 14:05:00,106.2,49.0,29.09,WSW,248,4.0,7.4,15,0.00,,,0.00,WSDL version 420,2013-06-27 19:05:00,
2013-06-27 14:10:00,107.5,50.0,29.09,ESE,119,2.7,6.5,15,-99.99,,,-99.99,WSDL version 420,2013-06-27 19:10:00,
2013-06-27 14:15:00,107.0,49.6,29.09,South,177,5.4,7.6,15,0.00,,,0.00,WSDL version 420,2013-06-27 19:15:00,
2013-06-27 14:20:00,106.8,49.5,29.06,SSW,210,2.4,7.6,15,0.00,,,0.00,WSDL version 420,2013-06-27 19:20:00,
2013-06-27 14:25:00,107.4,48.8,29.06,South,172,2.4,6.3,14,0.00,,,0.00,WSDL version 420,2013-06-27 19:25:00,
2013-06-27 14:30:00,107.4,49.3,29.06,West,267,4.9,7.6,15,0.00,,,0.00,WSDL version 420,2013-06-27 19:30:00,
2013-06-27 14:35:00,107.1,49.7,29.06,South,180,3.9,8.7,15,-99.99,,,-99.99,WSDL version 420,2013-06-27 19:35:00,
2013-06-27 14:40:00,107.0,49.6,29.06,SE,143,2.6,8.7,15,0.00,,,0.00,WSDL version 420,2013-06-27 19:40:00,
2013-06-27 14:45:00,106.7,48.0,29.06,SE,141,6.6,9.8,14,0.00,,,0.00,WSDL version 420,2013-06-27 19:45:00,
2013-06-27 14:50:00,106.9,48.2,29.06,SSE,148,3.1,9.8,14,0.00,,,0.00,WSDL version 420,2013-06-27 19:50:00,
2013-06-27 14:55:00,107.9,48.5,29.06,SE,127,3.0,7.4,14,0.00,,,0.00,WSDL version 420,2013-06-27 19:55:00,
2013-06-27 15:00:00,107.6,48.2,29.06,SSE,149,3.7,14.3,14,0.00,,,0.00,WSDL version 420,2013-06-27 20:00:00,
2013-06-27 15:06:00,108.2,48.7,29.03,South,180,3.3,8.7,14,0.00,,,0.00,WSDL version 420,2013-06-27 20:06:00,
2013-06-27 15:11:00,109.6,47.8,29.03,SE,143,2.1,6.3,13,-99.99,,,-99.99,WSDL version 420,2013-06-27 20:11:00,
2013-06-27 15:16:00,108.7,49.1,29.03,ESE,113,4.4,8.5,14,0.00,,,0.00,WSDL version 420,2013-06-27 20:16:00,
2013-06-27 15:21:00,108.3,47.8,29.03,SSE,153,6.2,8.7,13,0.00,,,0.00,WSDL version 420,2013-06-27 20:21:00,
2013-06-27 15:26:00,108.0,48.5,29.03,SSW,203,4.0,8.7,14,0.00,,,0.00,WSDL version 420,2013-06-27 20:26:00,
2013-06-27 15:31:00,108.6,47.0,29.03,WSW,248,3.2,7.2,13,0.00,,,0.00,WSDL version 420,2013-06-27 20:31:00,
2013-06-27 15:36:00,109.2,48.5,29.03,SW,221,4.0,8.1,14,0.00,,,0.00,WSDL version 420,2013-06-27 20:36:00,
2013-06-27 15:42:00,108.3,46.8,29.03,West,260,4.4,8.1,13,0.00,,,0.00,WSDL version 420,2013-06-27 20:42:00,
2013-06-27 15:47:00,108.4,46.9,29.03,SW,221,4.4,7.6,13,0.00,,,0.00,WSDL version 420,2013-06-27 20:47:00,
2013-06-27 15:52:00,109.3,48.2,29.00,SW,225,3.4,7.6,13,0.00,,,0.00,WSDL version 420,2013-06-27 20:52:00,
2013-06-27 15:57:00,109.6,47.8,29.00,West,267,3.2,6.0,13,0.00,,,0.00,WSDL version 420,2013-06-27 20:57:00,
2013-06-27 16:03:00,110.2,48.3,29.00,South,177,3.6,6.0,13,0.00,,,0.00,WSDL version 420,2013-06-27 21:03:00,
2013-06-27 16:08:00,109.5,47.7,29.03,WSW,256,5.3,6.5,13,-99.99,,,-99.99,WSDL version 420,2013-06-27 21:08:00,
2013-06-27 16:13:00,109.9,48.0,29.03,ENE,76,1.6,6.5,13,0.00,,,0.00,WSDL version 420,2013-06-27 21:13:00,
2013-06-27 16:18:00,110.0,48.1,29.03,East,84,3.8,5.6,13,0.00,,,0.00,WSDL version 420,2013-06-27 21:18:00,
2013-06-27 16:23:00,109.5,47.8,29.03,SSE,148,4.3,8.5,13,0.00,,,0.00,WSDL version 420,2013-06-27 21:23:00,
2013-06-27 16:28:00,109.7,47.9,29.03,ENE,75,0.5,8.5,13,0.00,,,0.00,WSDL version 420,2013-06-27 21:28:00,
2013-06-27 16:33:00,110.8,48.7,29.03,South,186,2.3,7.2,13,0.00,,,0.00,WSDL version 420,2013-06-27 21:33:00,
2013-06-27 16:38:00,109.9,48.1,29.03,SW,222,4.8,7.8,13,0.00,,,0.00,WSDL version 420,2013-06-27 21:38:00,
2013-06-27 16:43:00,109.2,47.5,29.03,West,264,4.0,8.7,13,0.00,,,0.00,WSDL version 420,2013-06-27 21:43:00,
2013-06-27 16:48:00,109.7,47.9,29.03,West,261,4.7,8.7,13,0.00,,,0.00,WSDL version 420,2013-06-27 21:48:00,
2013-06-27 16:53:00,109.6,47.8,29.03,West,265,2.6,6.5,13,0.00,,,0.00,WSDL version 420,2013-06-27 21:53:00,
2013-06-27 16:58:00,109.3,47.6,29.03,WSW,238,5.9,7.6,13,0.00,,,0.00,WSDL version 420,2013-06-27 21:58:00,
2013-06-27 17:03:00,109.9,48.0,29.03,West,273,2.7,7.6,13,0.00,,,0.00,WSDL version 420,2013-06-27 22:03:00,
2013-06-27 17:09:00,110.7,48.6,29.03,NE,49,2.1,4.9,13,0.00,,,0.00,WSDL version 420,2013-06-27 22:09:00,
2013-06-27 17:15:00,110.0,48.2,29.03,SSE,152,5.8,9.8,13,0.00,,,0.00,WSDL version 420,2013-06-27 22:15:00,
2013-06-27 17:20:00,109.5,47.8,29.00,South,191,5.6,10.5,13,0.00,,,0.00,WSDL version 420,2013-06-27 22:20:00,
2013-06-27 17:26:00,109.7,47.9,29.00,WSW,248,2.1,10.5,13,0.00,,,0.00,WSDL version 420,2013-06-27 22:26:00,
2013-06-27 17:31:00,110.3,48.4,29.00,SE,124,3.6,5.8,13,0.00,,,0.00,WSDL version 420,2013-06-27 22:31:00,
2013-06-27 17:36:00,109.7,47.9,29.00,SE,141,2.4,5.8,13,0.00,,,0.00,WSDL version 420,2013-06-27 22:36:00,
2013-06-27 17:42:00,110.0,48.2,29.00,East,84,3.7,5.4,13,0.00,,,0.00,WSDL version 420,2013-06-27 22:42:00,
2013-06-27 17:47:00,108.7,47.2,29.00,SW,219,3.9,22.6,13,0.00,,,0.00,WSDL version 420,2013-06-27 22:47:00,
2013-06-27 17:52:00,108.5,47.0,29.00,SW,218,2.8,22.6,13,0.00,,,0.00,WSDL version 420,2013-06-27 22:52:00,
2013-06-27 17:57:00,108.4,46.9,29.00,SSE,158,5.9,8.7,13,0.00,,,0.00,WSDL version 420,2013-06-27 22:57:00,
2013-06-27 18:02:00,108.3,46.8,29.00,SSE,158,4.3,8.7,13,0.00,,,0.00,WSDL version 420,2013-06-27 23:02:00,
2013-06-27 18:07:00,108.3,46.8,28.97,South,180,2.0,6.3,13,0.00,,,0.00,WSDL version 420,2013-06-27 23:07:00,
2013-06-27 18:13:00,108.3,46.8,28.97,South,188,4.3,7.8,13,0.00,,,0.00,WSDL version 420,2013-06-27 23:13:00,
2013-06-27 18:20:00,107.8,46.5,29.00,South,180,2.0,8.5,13,0.00,,,0.00,WSDL version 420,2013-06-27 23:20:00,
2013-06-27 18:25:00,107.3,48.0,29.00,SE,135,6.9,10.3,14,0.00,,,0.00,WSDL version 420,2013-06-27 23:25:00,
2013-06-27 18:30:00,106.2,47.1,29.00,SE,144,6.3,10.7,14,0.00,,,0.00,WSDL version 420,2013-06-27 23:30:00,
2013-06-27 18:38:00,105.4,48.4,29.00,ESE,120,4.3,10.7,15,0.00,,,0.00,WSDL version 420,2013-06-27 23:38:00,
2013-06-27 18:43:00,105.6,48.5,29.00,SE,135,3.4,7.6,15,0.00,,,0.00,WSDL version 420,2013-06-27 23:43:00,
2013-06-27 18:49:00,105.1,48.1,28.97,ESE,113,6.7,9.8,15,0.00,,,0.00,WSDL version 420,2013-06-27 23:49:00,
2013-06-27 18:56:00,104.3,47.5,28.97,ESE,120,5.9,10.7,15,0.00,,,0.00,WSDL version 420,2013-06-27 23:56:00,
2013-06-27 19:01:00,103.9,47.2,28.97,SE,126,6.1,10.3,15,0.00,,,0.00,WSDL version 420,2013-06-28 00:01:00,
2013-06-27 19:06:00,103.2,46.6,29.00,SE,124,4.3,8.7,15,0.00,,,0.00,WSDL version 420,2013-06-28 00:06:00,
2013-06-27 19:11:00,102.8,46.3,29.00,SSE,148,5.2,8.5,15,0.00,,,0.00,WSDL version 420,2013-06-28 00:11:00,
2013-06-27 19:16:00,102.5,46.1,29.00,SSE,151,5.6,8.9,15,0.00,,,0.00,WSDL version 420,2013-06-28 00:16:00,
2013-06-27 19:21:00,101.8,47.3,29.00,SE,138,6.3,10.1,16,0.00,,,0.00,WSDL version 420,2013-06-28 00:21:00,
2013-06-27 19:28:00,101.2,46.8,29.00,SSE,153,4.6,9.8,16,0.00,,,0.00,WSDL version 420,2013-06-28 00:28:00,
2013-06-27 19:33:00,100.9,46.5,29.00,SE,131,3.7,8.5,16,0.00,,,0.00,WSDL version 420,2013-06-28 00:33:00,
2013-06-27 19:38:00,100.6,46.3,29.00,SSE,158,4.1,8.1,16,0.00,,,0.00,WSDL version 420,2013-06-28 00:38:00,
2013-06-27 19:43:00,99.9,46.7,29.00,SE,143,4.5,6.5,17,0.00,,,0.00,WSDL version 420,2013-06-28 00:43:00,
2013-06-27 19:49:00,99.3,46.9,29.00,SE,128,6.3,10.3,17,-99.99,,,-99.99,WSDL version 420,2013-06-28 00:49:00,
2013-06-27 19:54:00,98.9,46.5,29.00,SE,135,6.5,10.3,17,-99.99,,,-99.99,WSDL version 420,2013-06-28 00:54:00,
2013-06-27 20:00:00,98.3,47.2,29.00,SE,139,4.3,8.5,18,-99.99,,,-99.99,WSDL version 420,2013-06-28 01:00:00,
2013-06-27 20:06:00,97.8,47.2,29.00,SE,139,5.2,6.5,18,0.00,,,0.00,WSDL version 420,2013-06-28 01:06:00,
2013-06-27 20:11:00,97.6,47.0,29.00,SE,143,4.0,6.5,18,0.00,,,0.00,WSDL version 420,2013-06-28 01:11:00,
2013-06-27 20:17:00,97.2,47.8,29.00,SSE,164,5.0,8.1,19,0.00,,,0.00,WSDL version 420,2013-06-28 01:17:00,
2013-06-27 20:24:00,96.6,48.3,28.97,SE,145,5.3,10.1,20,0.00,,,0.00,WSDL version 420,2013-06-28 01:24:00,
2013-06-27 20:29:00,96.1,48.6,28.97,SE,135,4.8,10.5,20,0.00,,,0.00,WSDL version 420,2013-06-28 01:29:00,
2013-06-27 20:34:00,95.6,48.2,28.97,SSE,153,4.4,10.5,20,0.00,,,0.00,WSDL version 420,2013-06-28 01:34:00,
2013-06-27 20:39:00,95.1,48.2,28.97,SE,131,5.0,8.1,21,0.00,,,0.00,WSDL version 420,2013-06-28 01:39:00,
2013-06-27 20:44:00,94.6,48.7,28.97,SSE,167,4.9,7.4,21,0.00,,,0.00,WSDL version 420,2013-06-28 01:44:00,
2013-06-27 20:49:00,94.2,48.3,29.00,SSE,163,4.8,7.8,21,-99.99,,,-99.99,WSDL version 420,2013-06-28 01:49:00,
2013-06-27 20:54:00,93.9,48.5,29.00,ESE,120,3.1,7.8,22,0.00,,,0.00,WSDL version 420,2013-06-28 01:54:00,
2013-06-27 20:59:00,93.3,48.9,29.00,SE,128,2.5,7.6,22,0.00,,,0.00,WSDL version 420,2013-06-28 01:59:00,
2013-06-27 21:04:00,93.0,49.7,29.00,SSE,158,3.1,7.6,23,0.00,,,0.00,WSDL version 420,2013-06-28 02:04:00,
2013-06-27 21:10:00,92.5,49.4,29.00,SE,146,0.0,4.0,23,0.00,,,0.00,WSDL version 420,2013-06-28 02:10:00,
2013-06-27 21:15:00,92.2,50.3,29.00,SSE,149,2.8,5.4,24,0.00,,,0.00,WSDL version 420,2013-06-28 02:15:00,
2013-06-27 21:20:00,91.9,50.0,29.00,SSE,150,2.2,5.4,24,-99.99,,,-99.99,WSDL version 420,2013-06-28 02:20:00,
2013-06-27 21:25:00,91.6,49.7,29.00,SE,131,2.3,5.4,24,0.00,,,0.00,WSDL version 420,2013-06-28 02:25:00,
2013-06-27 21:30:00,91.2,50.5,29.00,SE,128,1.7,5.4,25,0.00,,,0.00,WSDL version 420,2013-06-28 02:30:00,
2013-06-27 21:35:00,90.8,50.1,29.03,SE,144,0.9,3.8,25,0.00,,,0.00,WSDL version 420,2013-06-28 02:35:00,
2013-06-27 21:41:00,90.4,50.6,29.03,SE,135,1.9,4.0,26,0.00,,,0.00,WSDL version 420,2013-06-28 02:41:00,
2013-06-27 21:46:00,90.1,51.0,29.03,SSE,152,1.1,4.0,26,0.00,,,0.00,WSDL version 420,2013-06-28 02:46:00,
2013-06-27 21:51:00,89.7,51.3,29.03,SE,141,1.7,6.0,27,0.00,,,0.00,WSDL version 420,2013-06-28 02:51:00,
2013-06-27 21:56:00,89.6,50.9,29.03,SSE,158,2.8,6.0,26,0.00,,,0.00,WSDL version 420,2013-06-28 02:56:00,
2013-06-27 22:02:00,89.6,50.2,29.03,SSE,154,2.2,6.7,26,0.00,,,0.00,WSDL version 420,2013-06-28 03:02:00,
2013-06-27 22:07:00,89.5,50.2,29.03,SSE,162,1.4,6.7,26,0.00,,,0.00,WSDL version 420,2013-06-28 03:07:00,
2013-06-27 22:12:00,89.2,49.9,29.03,SE,144,1.5,5.6,26,-99.99,,,-99.99,WSDL version 420,2013-06-28 03:12:00,
2013-06-27 22:18:00,88.9,49.6,29.03,SSE,158,1.4,3.4,26,0.00,,,0.00,WSDL version 420,2013-06-28 03:18:00,
2013-06-27 22:24:00,88.6,49.3,29.06,SE,143,0.4,3.4,26,0.00,,,0.00,WSDL version 420,2013-06-28 03:24:00,
2013-06-27 22:29:00,88.2,49.0,29.06,SSE,158,0.3,2.9,26,0.00,,,0.00,WSDL version 420,2013-06-28 03:29:00,
2013-06-27 22:35:00,87.7,49.3,29.09,South,169,0.0,1.6,27,0.00,,,0.00,WSDL version 420,2013-06-28 03:35:00,
2013-06-27 22:40:00,87.2,49.2,29.09,SSE,158,0.0,0.0,27,0.00,,,0.00,WSDL version 420,2013-06-28 03:40:00,
2013-06-27 22:46:00,86.6,49.2,29.09,South,173,0.0,0.0,28,0.00,,,0.00,WSDL version 420,2013-06-28 03:46:00,
2013-06-27 22:52:00,86.2,49.3,29.09,SSE,161,0.0,0.0,28,0.00,,,0.00,WSDL version 420,2013-06-28 03:52:00,
2013-06-27 23:01:00,85.1,49.3,29.09,South,190,0.0,0.0,29,0.00,,,0.00,WSDL version 420,2013-06-28 04:01:00,
2013-06-27 23:02:00,85.1,49.3,29.09,SSW,203,0.0,0.0,29,0.00,,,0.00,WSDL version 420,2013-06-28 04:02:00,
2013-06-27 23:03:00,85.0,49.2,29.09,SSW,203,0.0,0.0,29,0.00,,,0.00,WSDL version 420,2013-06-28 04:03:00,
2013-06-27 23:04:00,85.0,49.2,29.09,SSW,203,0.0,0.0,29,-99.99,,,-99.99,WSDL version 420,2013-06-28 04:04:00,
2013-06-27 23:09:00,84.7,48.9,29.09,SW,214,0.0,0.0,29,0.00,,,0.00,WSDL version 420,2013-06-28 04:09:00,
2013-06-27 23:10:00,84.5,48.8,29.09,SW,219,0.0,0.0,29,0.00,,,0.00,WSDL version 420,2013-06-28 04:10:00,
2013-06-27 23:15:00,84.2,49.0,29.09,SW,225,0.0,0.0,30,0.00,,,0.00,WSDL version 420,2013-06-28 04:15:00,
2013-06-27 23:20:00,83.8,49.1,29.09,SW,225,0.0,0.0,30,-99.99,,,-99.99,WSDL version 420,2013-06-28 04:20:00,
2013-06-27 23:25:00,83.6,48.9,29.09,SW,225,0.0,0.0,30,0.00,,,0.00,WSDL version 420,2013-06-28 04:25:00,
2013-06-27 23:32:00,83.2,48.6,29.09,SW,225,0.0,0.0,30,0.00,,,0.00,WSDL version 420,2013-06-28 04:32:00,
2013-06-27 23:37:00,83.1,48.8,29.09,SW,225,0.0,0.0,30,0.00,,,0.00,WSDL version 420,2013-06-28 04:37:00,
2013-06-27 23:42:00,82.9,48.9,29.09,South,180,0.0,0.0,30,0.00,,,0.00,WSDL version 420,2013-06-28 04:42:00,
2013-06-27 23:47:00,82.9,48.3,29.09,SSW,203,0.0,0.0,30,0.00,,,0.00,WSDL version 420,2013-06-28 04:47:00,
2013-06-27 23:52:00,82.5,48.4,29.06,South,180,0.0,0.0,31,-99.99,,,-99.99,WSDL version 420,2013-06-28 04:52:00,
2013-06-27 23:57:00,82.4,48.8,29.06,South,188,0.0,0.0,31,0.00,,,0.00,WSDL version 420,2013-06-28 04:57:00,